Location: Unspecified
(50.7693°N, 0.0000°E)
Time: 15:50:04
(UTC+00:00)

SR - Pass Details

Date: 04 July 2019
Orbit: 578 x 878 km, 66.7° (Epoch: 21 August)

Event Time Altitude Azimuth Distance (km) Brightness Sun altitude
Rises 23:13:31 0° 156° (SSE) 2,782 - -15.5°
Reaches altitude 10° 23:17:28 10° 119° (ESE) 1,906 - -15.7°
Exits shadow 23:18:01 11° 111° (ESE) 1,872 ? -15.7°
Maximum altitude 23:18:29 11° 105° (ESE) 1,866 ? -15.7°
Drops below altitude 10° 23:19:31 10° 91° (E) 1,926 ? -15.7°
Sets 23:23:35 0° 54° (NE) 2,886 ? -15.8°
